Regional Weather Roundup
Issued by NWS

Home | Current Version | Previous Version | Text Only | Print | Product List | Glossary Off
Versions: 1 2 3 4 5 6 7 8 9 10 11 12 13 14 15 16 17 18 19 20 21 22 23 24 25 26 27 28 29 30 31 32 33 34 35 36 37 38 39 40 41 42 43 44 45 46 47 48 49 50

000
ASUS43 KLMK 230602
RWRKY
KENTUCKY REGIONAL WEATHER ROUNDUP
NATIONAL WEATHER SERVICE LOUISVILLE KY
200 AM EDT FRI JUN 23 2017

NOTE "FAIR" INDICATES FEW OR NO CLOUDS BELOW 12,000 FEET
WITH NO SIGNIFICANT WEATHER AND/OR OBSTRUCTIONS TO VISIBILITY.

KYZ001>023-026-027-061>063-070>075-230700-
WESTERN AND SOUTH CENTRAL KENTUCKY

CITY           SKY/WX    TMP DP  RH WIND       PRES   REMARKS
PADUCAH        CLOUDY    77  73  87 S8        29.77F
HENDERSON      CLOUDY    76  73  91 S8        29.79F
OWENSBORO      CLOUDY    76  73  91 S12       29.80F
HOPKINSVILLE   PTCLDY    77  73  88 S7        29.82F
BOWLING GREEN  CLOUDY    78  74  87 S12       29.85F
GLASGOW        NOT AVBL
$$

KYZ024-025-028>034-038-045-046-053-230700-
NORTH CENTRAL KENTUCKY

CITY           SKY/WX    TMP DP  RH WIND       PRES   REMARKS
LOUISVILLE/SDF CLOUDY    76  73  91 S13       29.83F
LOUISVILLE/LOU CLOUDY    74  74 100 S6        29.84F
FORT KNOX      CLOUDY    73  73 100 S9        29.83F
$$

KYZ035>037-039>044-047>052-055>060-089>105-230700-
NORTHEAST KENTUCKY

CITY           SKY/WX    TMP DP  RH WIND       PRES   REMARKS
LEXINGTON      CLOUDY    73  70  90 S10       29.89F
COVINGTON      CLOUDY    72  71  97 S9        29.85F
FRANKFORT      MOCLDY    73  69  87 S6        29.86F
$$

KYZ054-064>069-076>088-106>120-230700-
SOUTHEAST KENTUCKY

CITY           SKY/WX    TMP DP  RH WIND       PRES   REMARKS
JACKSON        MOCLDY    70  68  93 VRB3      29.94F
LONDON         CLOUDY    72  68  87 S8        29.94F
SOMERSET       CLOUDY    70  70 100 S5        29.93F
MIDDLESBORO    HVY RAIN  72  72 100 S6        29.99S
MONTICELLO     CLOUDY    75  71  87 VRB7      29.93F
$$




USA.gov is the U.S. government's official web portal to all federal, state and local government web resources and services.